Wind_Speed
5 5 6 7 8 9 9 10 10 10 9 10 10 12 13 13 14 14 15 16 18 19 20 19 20 20 20 21 21 21 20 19 20 20 20 20 19 18 18 18 18 17 17 17
5 6 7 8 9 9 10 11 11 11 10 11 11 12 13 14 14 15 16 17 18 20 20 19 19 19 20 20 21 21 19 18 20 20 20 19 17 17 16 16 16 17 16 16
6 7 8 8 9 10 10 10 11 11 11 12 13 13 14 15 15 16 17 17 18 19 18 18 19 19 20 20 20 20 19 19 19 19 18 17 16 15 16 16 16 17 17 16
7 7 7 8 10 10 11 11 11 11 12 13 13 14 15 16 16 17 17 18 18 19 18 18 19 19 20 19 19 19 18 18 18 18 17 16 15 16 16 16 16 16 16 16
8 8 8 9 10 11 11 11 12 12 12 13 14 14 16 16 17 17 18 19 18 18 18 19 19 18 18 18 18 17 17 18 18 17 16 15 14 14 15 16 15 16 15 15
9 9 9 10 10 11 11 11 13 13 13 14 14 14 16 16 17 17 18 19 19 18 18 18 17 18 18 18 18 18 17 18 17 16 15 14 13 14 14 15 15 15 15 14
9 10 10 10 11 11 11 11 11 12 12 13 15 15 16 16 17 17 18 18 18 19 19 19 18 19 19 18 18 18 18 18 17 15 13 13 13 14 14 14 14 14 14 15
10 11 12 11 11 12 11 10 11 11 11 14 15 15 16 16 17 17 18 19 19 19 19 19 18 18 18 17 17 16 16 16 16 14 12 12 12 13 13 13 14 13 14 15
10 12 12 12 12 12 11 11 12 13 13 14 15 16 16 16 17 17 18 18 18 18 18 18 18 18 18 17 17 16 16 15 14 13 13 13 13 13 13 14 14 14 14 15
11 12 12 13 12 12 12 12 13 13 14 14 16 16 16 16 16 17 18 18 18 18 17 17 17 17 17 17 17 17 16 15 14 14 13 13 13 13 13 13 14 14 14 14
11 12 13 13 13 13 13 14 14 14 14 14 14 16 16 17 17 17 17 17 17 17 17 17 17 17 17 16 15 16 15 14 13 14 14 14 14 13 13 13 14 14 13 14
12 12 13 14 14 14 14 15 14 15 15 15 15 16 17 17 17 17 17 16 16 17 17 17 17 17 16 16 15 15 14 14 14 14 14 13 13 13 13 13 13 13 13 14
12 13 14 14 15 14 14 14 14 15 15 15 15 16 16 17 17 16 16 16 16 17 17 18 17 17 16 16 16 16 15 14 14 14 14 13 12 13 13 13 13 13 13 13
13 14 14 14 14 15 15 14 14 14 15 15 15 15 16 17 16 16 15 16 16 17 17 18 18 17 17 16 16 15 14 14 13 14 13 13 13 13 13 13 13 13 13 13
14 15 15 15 16 16 16 15 15 15 14 14 15 16 16 17 16 16 15 16 16 16 17 17 17 17 16 15 15 14 13 14 14 14 13 13 13 13 13 12 12 12 12 12
15 15 15 15 15 16 16 15 15 15 15 15 16 16 16 16 16 16 16 16 16 17 17 17 17 16 15 15 14 13 14 14 14 14 13 13 13 12 12 12 12 12 13 13
16 15 15 15 15 16 16 15 15 15 15 15 15 16 16 15 16 16 16 16 16 17 17 16 16 16 15 15 14 14 14 14 14 13 13 12 12 12 12 12 12 13 13 13
17 16 16 15 16 17 16 16 15 15 15 15 15 15 16 16 16 16 16 16 17 18 17 17 16 15 15 15 15 15 14 14 13 13 13 13 12 12 12 13 13 13 13 13
17 17 17 16 17 17 17 16 15 15 15 14 15 15 15 15 16 17 17 17 17 17 17 16 16 16 15 15 15 15 14 13 13 13 13 14 13 13 13 14 13 13 13 13
18 18 18 18 17 17 17 16 15 15 15 15 15 16 16 16 16 17 17 18 18 18 17 16 16 16 16 16 16 15 15 15 14 14 13 14 14 14 14 14 14 14 13 14
19 18 18 18 18 18 17 16 15 16 16 16 16 16 17 17 17 18 18 18 18 19 18 18 18 17 17 17 17 16 16 15 15 14 14 15 15 15 15 14 14 14 13 14
20 19 18 18 19 19 18 18 17 17 17 17 17 17 17 18 18 19 19 19 19 19 19 19 18 18 17 17 17 17 16 16 15 15 15 16 15 15 14 14 13 13 14 14
21 21 21 20 20 20 19 19 19 19 19 18 19 19 19 19 19 20 20 20 20 20 20 19 19 18 18 18 18 17 17 16 16 16 16 16 16 15 14 14 13 13 14 14
23 22 22 22 22 21 21 21 21 20 20 20 20 20 20 20 20 20 21 21 21 21 20 20 20 19 18 18 18 18 17 17 17 17 16 15 15 14 14 14 14 14 15 15
24 24 24 24 24 23 22 23 23 22 22 22 22 22 22 22 21 22 22 22 22 21 21 21 20 20 19 18 18 18 18 18 18 17 16 15 14 14 14 13 13 13 14 15
25 26 25 25 25 24 24 25 25 25 24 23 24 24 24 24 23 23 23 23 23 22 22 21 21 20 19 19 18 18 18 18 17 17 16 16 15 15 14 14 13 14 14 14
Wind_Direction
241 247 258 261 260 259 264 266 273 272 274 283 288 286 285 287 290 290 292 294 295 297 297 297 298 297 295 295 295 295 294 293 292 294 298 295 294 292 288 286 287 287 284 281
251 258 263 262 265 271 274 269 275 277 278 283 288 291 290 292 293 293 295 297 299 299 299 301 301 299 297 296 295 294 293 294 294 296 299 296 294 293 290 290 290 287 288 284
252 261 261 265 278 279 281 275 278 283 284 285 292 293 292 295 295 296 297 298 301 301 302 303 304 302 300 297 296 296 295 296 295 295 296 296 293 291 292 293 293 292 290 289
259 261 267 277 283 284 286 283 281 284 289 293 296 296 295 296 296 297 297 299 300 302 303 304 304 302 301 300 300 299 299 299 299 297 295 293 293 294 294 296 295 296 293 288
266 271 278 283 285 282 283 285 284 288 289 291 295 297 298 297 296 296 297 300 301 304 305 306 305 306 305 304 307 305 306 304 303 301 296 296 295 295 297 301 298 297 294 288
265 276 280 284 287 284 284 286 288 291 296 297 296 297 296 299 298 298 299 300 301 304 306 308 306 308 310 308 310 310 306 304 302 301 297 296 297 297 300 303 304 300 296 290
271 276 280 285 285 285 285 290 299 302 301 295 297 296 297 299 299 301 302 302 301 303 306 308 309 310 312 311 309 308 307 305 303 300 296 296 302 305 306 306 305 301 299 298
268 277 280 285 288 289 288 286 283 284 287 291 298 298 297 298 300 304 306 307 306 305 305 307 308 309 310 311 311 312 310 307 303 302 303 303 307 311 314 314 311 304 300 300
268 275 281 285 289 288 289 287 284 287 290 294 298 301 301 299 301 304 307 309 308 307 306 307 309 309 309 309 310 307 308 309 307 305 306 308 310 312 314 316 315 310 304 302
272 277 284 286 289 288 288 290 291 291 293 295 299 303 304 303 304 305 309 309 308 310 309 309 311 312 310 306 306 304 303 306 308 306 305 307 306 307 310 312 313 310 308 306
271 279 285 287 290 291 291 292 292 290 289 292 295 300 302 302 306 307 309 308 308 313 313 312 313 314 311 308 306 305 304 305 306 306 304 304 303 303 307 308 312 312 312 311
270 277 284 291 294 293 293 292 293 292 293 294 295 299 302 304 306 307 308 308 309 313 313 313 314 315 312 310 307 304 302 302 303 304 304 303 303 302 303 306 309 311 312 314
272 277 286 294 295 295 294 295 294 293 292 292 294 299 304 305 305 306 308 309 310 312 313 314 316 316 313 312 310 307 304 301 300 300 302 303 303 302 302 303 305 308 310 312
275 279 282 284 287 292 294 295 296 295 293 292 294 297 303 305 303 304 306 310 311 311 312 314 316 314 311 310 309 308 305 305 305 303 301 301 301 305 304 305 307 308 309 310
277 283 284 286 289 293 293 292 292 293 294 294 294 297 302 304 304 305 306 307 309 310 313 314 314 315 313 309 307 306 305 304 304 304 301 301 302 305 304 304 308 310 310 310
278 280 283 287 291 295 294 292 292 293 294 296 296 299 303 303 302 305 307 309 310 312 314 316 315 313 312 310 308 306 306 305 305 306 306 307 305 303 303 305 308 310 308 307
276 278 281 286 289 291 292 293 295 296 296 297 299 301 304 304 303 305 307 309 311 314 316 317 316 314 311 310 307 305 306 306 307 310 311 312 307 303 302 304 306 308 308 306
275 276 280 284 288 289 288 290 292 294 296 295 298 300 301 301 302 304 306 309 311 314 316 315 315 313 313 311 306 307 307 309 310 310 310 310 308 305 302 303 305 306 304 302
276 277 279 281 285 288 287 288 290 290 292 295 298 301 301 302 302 304 305 306 307 312 314 313 313 313 313 311 306 303 304 305 306 307 307 307 306 304 303 301 303 305 302 301
272 273 276 277 280 282 283 285 288 289 289 294 298 300 301 302 302 302 303 304 305 308 309 311 311 310 310 310 309 304 304 305 305 304 303 303 303 302 301 300 301 303 303 303
268 270 271 273 277 278 281 282 285 286 288 293 297 299 299 300 302 303 303 303 303 306 307 307 308 309 310 309 308 305 303 301 300 298 298 299 300 300 300 299 300 300 301 302
265 267 269 271 273 276 281 281 281 282 286 290 294 297 298 298 300 303 305 304 303 303 304 305 304 304 306 307 306 305 302 300 296 294 293 295 297 299 298 299 299 299 301 303
262 265 267 270 273 276 277 279 280 283 284 287 289 292 296 298 299 301 303 304 303 303 302 303 303 301 300 302 304 304 303 301 297 295 293 292 293 293 295 296 296 297 299 302
263 265 267 269 272 274 275 276 278 281 282 284 285 288 291 294 296 298 300 301 302 302 301 302 303 301 300 300 300 300 299 299 297 295 293 293 293 292 291 294 294 296 298 301
265 268 268 267 269 271 274 275 276 277 280 283 285 286 288 291 294 296 297 298 299 299 300 300 300 300 298 298 298 297 295 297 297 294 291 291 291 289 290 292 293 295 298 300
264 266 267 268 269 272 274 277 277 277 279 282 285 286 288 290 292 293 294 294 296 297 296 296 296 296 293 293 295 295 294 294 294 291 289 290 289 287 289 290 292 294 297 301
Height
5857 5859 5859 5860 5860 5861 5860 5860 5860 5859 5858 5857 5856 5855 5853 5851 5850 5848 5847 5845 5843 5841 5838 5836 5833 5831 5828 5826 5824 5822 5820 5818 5816 5814 5811 5809 5806 5803 5801 5799 5797 5795 5794 5793
5857 5858 5858 5857 5857 5857 5857 5857 5857 5856 5855 5854 5853 5852 5850 5848 5847 5845 5844 5841 5839 5836 5834 5831 5829 5826 5824 5821 5819 5817 5815 5813 5811 5809 5807 5804 5802 5799 5797 5795 5793 5792 5790 5789
5855 5857 5855 5855 5855 5855 5855 5854 5854 5853 5852 5851 5850 5848 5847 5845 5843 5842 5840 5837 5835 5833 5830 5828 5825 5822 5820 5817 5815 5813 5811 5809 5806 5804 5802 5800 5798 5796 5794 5792 5790 5788 5787 5785
5853 5853 5853 5853 5852 5852 5852 5851 5851 5850 5849 5848 5848 5846 5844 5841 5839 5837 5835 5833 5831 5829 5826 5823 5821 5818 5815 5813 5810 5808 5806 5804 5802 5800 5798 5796 5794 5792 5790 5788 5786 5784 5783 5782
5851 5851 5851 5851 5850 5849 5849 5848 5847 5847 5846 5845 5844 5843 5841 5838 5836 5834 5831 5829 5827 5824 5822 5819 5816 5814 5811 5809 5806 5804 5802 5799 5797 5795 5793 5791 5790 5788 5786 5784 5782 5781 5779 5778
5849 5849 5848 5848 5847 5846 5845 5845 5844 5843 5843 5842 5841 5840 5838 5835 5832 5830 5828 5825 5822 5820 5818 5815 5812 5810 5807 5805 5802 5800 5797 5795 5793 5791 5789 5788 5786 5785 5783 5780 5779 5777 5776 5774
5846 5846 5845 5845 5844 5843 5843 5843 5843 5842 5841 5840 5837 5836 5834 5831 5829 5826 5824 5821 5819 5816 5814 5811 5809 5806 5804 5801 5799 5796 5794 5792 5789 5787 5786 5784 5783 5781 5779 5777 5775 5774 5772 5770
5845 5845 5843 5842 5842 5841 5840 5840 5841 5841 5840 5838 5833 5832 5831 5827 5825 5822 5820 5817 5815 5812 5810 5808 5805 5802 5800 5797 5795 5793 5790 5788 5786 5784 5783 5781 5780 5778 5775 5774 5772 5770 5769 5767
5843 5842 5841 5840 5839 5838 5837 5836 5836 5835 5834 5832 5831 5828 5825 5823 5821 5818 5816 5813 5811 5808 5806 5803 5801 5798 5796 5794 5791 5789 5786 5784 5782 5780 5779 5778 5776 5774 5773 5770 5769 5767 5765 5763
5839 5839 5838 5836 5835 5834 5834 5833 5832 5831 5830 5829 5828 5825 5823 5819 5817 5814 5812 5809 5807 5804 5802 5799 5797 5794 5792 5789 5787 5785 5783 5781 5779 5777 5776 5775 5773 5772 5770 5768 5766 5763 5761 5759
5835 5836 5835 5833 5832 5831 5830 5829 5827 5827 5826 5825 5824 5824 5819 5816 5813 5811 5808 5805 5803 5801 5798 5795 5793 5790 5787 5785 5783 5781 5779 5777 5776 5774 5772 5771 5770 5768 5766 5765 5762 5760 5758 5756
5832 5832 5831 5830 5828 5827 5826 5824 5824 5823 5822 5820 5819 5821 5814 5812 5809 5807 5804 5802 5800 5797 5794 5791 5789 5786 5783 5781 5779 5777 5775 5774 5772 5771 5769 5767 5766 5765 5763 5761 5759 5757 5755 5752
5829 5829 5828 5827 5826 5824 5821 5820 5819 5818 5817 5816 5815 5816 5810 5808 5805 5803 5801 5799 5796 5794 5791 5788 5786 5783 5780 5778 5776 5774 5772 5770 5769 5767 5766 5764 5763 5761 5759 5758 5756 5754 5752 5749
5825 5825 5825 5825 5822 5820 5818 5816 5815 5814 5813 5812 5811 5809 5807 5804 5802 5800 5798 5796 5793 5791 5788 5785 5782 5779 5777 5774 5772 5770 5769 5767 5766 5764 5763 5761 5759 5758 5756 5754 5752 5750 5748 5746
5821 5820 5819 5818 5817 5815 5814 5813 5811 5810 5809 5808 5807 5804 5803 5800 5798 5796 5794 5792 5790 5788 5785 5782 5779 5776 5774 5771 5769 5767 5766 5764 5762 5761 5759 5757 5756 5754 5752 5751 5749 5747 5745 5743
5816 5816 5815 5814 5812 5811 5810 5809 5807 5806 5805 5803 5802 5800 5798 5796 5794 5792 5790 5788 5786 5784 5781 5778 5775 5773 5770 5768 5766 5764 5763 5761 5759 5757 5755 5753 5752 5750 5749 5747 5745 5744 5742 5740
5811 5811 5810 5809 5808 5807 5806 5805 5803 5802 5801 5800 5798 5797 5794 5792 5790 5788 5786 5784 5782 5780 5777 5775 5772 5769 5767 5765 5763 5762 5760 5758 5756 5754 5752 5750 5748 5747 5745 5744 5742 5740 5738 5736
5807 5806 5805 5805 5804 5803 5803 5800 5799 5798 5796 5795 5793 5792 5790 5788 5786 5784 5782 5780 5778 5776 5773 5771 5768 5766 5764 5762 5760 5758 5757 5755 5753 5750 5749 5747 5745 5744 5742 5740 5738 5736 5734 5733
5801 5801 5800 5800 5799 5798 5797 5795 5794 5793 5792 5791 5789 5788 5786 5784 5782 5780 5778 5776 5774 5772 5769 5767 5765 5763 5761 5758 5757 5755 5753 5751 5749 5747 5746 5744 5742 5741 5739 5737 5735 5733 5731 5729
5796 5795 5796 5794 5794 5793 5793 5791 5789 5789 5788 5786 5785 5783 5782 5780 5779 5777 5774 5772 5770 5768 5765 5763 5761 5759 5757 5755 5753 5751 5749 5747 5746 5744 5742 5740 5739 5737 5735 5733 5731 5730 5728 5726
5790 5789 5789 5789 5788 5787 5787 5786 5785 5786 5784 5782 5780 5779 5777 5775 5774 5772 5769 5767 5765 5763 5761 5759 5757 5755 5753 5751 5749 5747 5745 5743 5742 5740 5738 5737 5735 5733 5731 5729 5728 5726 5724 5722
5783 5783 5783 5783 5782 5783 5781 5780 5780 5779 5777 5776 5775 5774 5772 5770 5768 5767 5764 5762 5760 5758 5756 5754 5752 5750 5748 5746 5745 5743 5741 5739 5738 5736 5734 5732 5731 5729 5727 5725 5724 5722 5720 5719
5776 5777 5776 5777 5778 5776 5775 5774 5773 5772 5771 5770 5769 5768 5767 5765 5763 5761 5759 5757 5755 5753 5751 5749 5747 5745 5743 5742 5740 5738 5736 5734 5733 5731 5729 5727 5726 5724 5722 5721 5720 5718 5716 5714
5769 5769 5769 5768 5768 5768 5768 5767 5766 5766 5765 5764 5763 5762 5761 5759 5757 5756 5754 5752 5750 5748 5745 5743 5742 5740 5738 5736 5734 5733 5731 5729 5728 5726 5724 5722 5721 5719 5718 5717 5715 5714 5712 5710
5761 5761 5761 5761 5761 5761 5760 5759 5759 5758 5758 5757 5756 5755 5754 5752 5751 5749 5748 5746 5744 5742 5740 5738 5736 5735 5733 5731 5729 5727 5726 5724 5722 5720 5719 5717 5716 5715 5714 5712 5711 5709 5708 5706
5753 5753 5753 5753 5753 5753 5753 5752 5751 5751 5750 5749 5748 5748 5746 5745 5744 5742 5741 5739 5737 5736 5734 5732 5730 5729 5727 5725 5723 5722 5720 5718 5717 5715 5714 5712 5711 5710 5709 5708 5706 5705 5703 5701